This demonstration page uses our WeatherBlox Daily Observations layout. Learn more.

Left ArrowRight Arrow

39.51506, -84.39828

Hourly Observations for December 2, 2015

Temp ( °F °C ) Dew Point ( °F °C ) Humidity (%) Winds ( mph kmh ) Pressure ( in mb ) Visibility ( mi km ) Precip ( " mm )
12:15 am 00:15 Clear 39 4 37 2.5 90 90 N N/A 29.94 1014 7 11 N/A
12:35 am 00:35 Clear 39 4 37 2.5 90 90 N N/A 29.94 1014 7 11 N/A
12:55 am 00:55 Clear 39 4 37 2.5 90 90 N N/A 29.91 1013 7 11 N/A
1:15 am 01:15 Clear 39 4 37 2.5 90 90 N N/A 29.91 1013 10 16 N/A
1:35 am 01:35 Clear 39 4 37 2.5 90 90 N N/A 29.91 1013 7 11 N/A
1:55 am 01:55 Clear 39 4 37 2.5 90 90 N N/A 29.91 1013 10 16 N/A
2:15 am 02:15 Clear 39 4 37 2.5 90 90 N N/A 29.88 1012 10 16 N/A
2:35 am 02:35 Clear with Mist and Fog 39 4 37 2.5 90 90 N N/A 29.88 1012 3 5 N/A
2:55 am 02:55 Partly Cloudy 37 2.8 34 1.3 90 90 N N/A 29.88 1012 7 11 N/A
3:15 am 03:15 Clear 37 2.6 34 1.1 90 90 N 3 6 29.88 1012 10 16 N/A
3:35 am 03:35 Clear 37 2.8 34 1.3 90 90 N N/A 29.88 1012 10 16 N/A
3:55 am 03:55 Clear 37 2.6 34 1.1 90 90 N N/A 29.85 1011 7 11 N/A
4:15 am 04:15 Mostly Cloudy with Mist and Fog 37 2.6 34 1.1 90 90 N N/A 29.85 1011 2 3 N/A
4:35 am 04:35 Partly Cloudy 37 2.6 34 1.1 90 90 N N/A 29.85 1011 10 16 N/A
4:55 am 04:55 Mostly Cloudy 37 2.6 34 1.1 90 90 N N/A 29.85 1011 7 11 N/A
5:15 am 05:15 Cloudy with Mist and Fog 37 2.6 34 1.1 90 90 N N/A 29.85 1011 4 6 N/A
5:35 am 05:35 Cloudy with Fog 37 2.6 34 1.1 90 90 N N/A 29.85 1011 0 0 N/A
5:55 am 05:55 Cloudy with Fog 37 2.6 34 1.1 90 90 N N/A 29.85 1011 0 0 N/A
6:15 am 06:15 Mostly Cloudy with Fog 37 2.6 34 1.2 91 91 N N/A 29.85 1011 1 1 N/A
6:35 am 06:35 Mostly Cloudy with Fog 37 2.6 34 1.3 91 91 N N/A 29.85 1011 1 1 N/A
6:55 am 06:55 Cloudy with Fog 36 2.2 33 0.7 90 90 N N/A 29.88 1012 1 1 N/A
7:15 am 07:15 Mostly Cloudy with Mist and Fog 35 1.5 32 0.1 91 91 N N/A 29.88 1012 1 1 N/A
7:35 am 07:35 Cloudy with Fog 34 1.3 32 undefined 91 91 N N/A 29.88 1012 1 1 N/A
7:55 am 07:55 Cloudy with Fog 34 1.2 32 undefined 92 92 N N/A 29.88 1012 5 8 N/A
8:15 am 08:15 Cloudy with Fog 34 1.2 32 undefined 92 92 N N/A 29.88 1012 0 0 N/A
8:35 am 08:35 Cloudy with Fog 34 1.2 32 undefined 92 92 N N/A 29.88 1012 5 8 N/A
8:55 am 08:55 Cloudy with Fog 36 2.3 34 0.9 91 91 N N/A 29.88 1012 5 8 N/A
9:15 am 09:15 Cloudy with Fog 36 2 33 0.5 90 90 ESE 5 7 29.88 1012 5 8 N/A
9:35 am 09:35 Cloudy with Fog 37 2.6 34 1.3 91 91 N N/A 29.85 1011 5 8 N/A
9:55 am 09:55 Cloudy with Fog 39 4 37 2.7 91 91 N N/A 29.85 1011 5 8 N/A
10:15 am 10:15 Cloudy with Fog 39 4 37 2.7 91 91 N N/A 29.85 1011 5 8 N/A
10:35 am 10:35 Cloudy with Mist and Fog 41 5.2 39 3.8 91 91 N N/A 29.83 1010 1 1 N/A
10:55 am 10:55 Mostly Cloudy 44 6.7 42 5.3 91 91 SSW 8 13 29.83 1010 7 11 N/A
11:15 am 11:15 Cloudy 46 7.8 44 6.4 91 91 SW 9 15 29.83 1010 10 16 N/A
11:35 am 11:35 Partly Cloudy 49 9.6 46 8 90 90 WSW 13 20 29.83 1010 10 16 N/A
11:55 am 11:55 Partly Cloudy 49 9.6 43 6.3 80 80 SW 12 19 29.80 1009 10 16 N/A
12:15 pm 12:15 Mostly Cloudy 49 9.6 40 4.6 71 71 W 14 22 29.83 1010 10 16 N/A
12:35 pm 12:35 Mostly Cloudy 49 9.6 39 4 68 68 W 13 20 29.83 1010 10 16 N/A
12:55 pm 12:55 Cloudy 47 8.3 37 2.6 68 68 W 14 22 29.83 1010 10 16 N/A
1:15 pm 13:15 Cloudy 47 8.2 37 2.6 68 68 W 12 19 29.83 1010 10 16 N/A
1:35 pm 13:35 Cloudy 43 6.1 35 1.9 75 75 WNW 13 20 29.83 1010 7 11 N/A
1:55 pm 13:55 Cloudy 47 8.2 36 2.4 67 67 W 14 22 29.83 1010 10 16 N/A
2:15 pm 14:15 Cloudy 44 6.8 34 1 67 67 W 10 17 29.83 1010 10 16 N/A
2:35 pm 14:35 Cloudy 44 6.4 33 0.8 68 68 W 13 20 29.85 1011 10 16 N/A
2:55 pm 14:55 Cloudy 42 5.7 34 1 72 72 WNW 14 22 29.85 1011 10 16 N/A
3:15 pm 15:15 Cloudy 42 5.5 34 1.3 75 75 W 9 15 29.85 1011 10 16 N/A
3:35 pm 15:35 Cloudy with Haze 39 4 34 0.9 80 80 W 12 19 29.85 1011 5 8 N/A
3:55 pm 15:55 Cloudy 39 4 35 1.5 84 84 WNW 12 19 29.88 1012 7 11 N/A
4:15 pm 16:15 Cloudy 39 4 34 1.3 83 83 W 8 13 29.88 1012 10 16 N/A
4:35 pm 16:35 Cloudy 39 4 34 1.1 82 82 W 6 9 29.88 1012 10 16 N/A
4:55 pm 16:55 Cloudy 39 4 33 0.7 79 79 WNW 7 11 29.88 1012 10 16 N/A
5:15 pm 17:15 Cloudy 39 4 32 undefined 75 75 W 8 13 29.91 1013 10 16 N/A
5:35 pm 17:35 Cloudy 39 3.7 31 -0.5 74 74 W 8 13 29.91 1013 10 16 N/A
5:55 pm 17:55 Cloudy 39 4 31 -0.3 74 74 W 6 9 29.91 1013 10 16 N/A
6:15 pm 18:15 Cloudy 39 4 31 -0.5 73 73 WSW 5 7 29.91 1013 10 16 N/A
6:35 pm 18:35 Cloudy 39 3.8 30 -1.1 71 71 W 7 11 29.91 1013 10 16 N/A
6:55 pm 18:55 Cloudy 37 3 29 -1.6 72 72 W 7 11 29.94 1014 10 16 N/A
7:15 pm 19:15 Cloudy 37 2.6 29 -1.7 74 74 WSW 5 7 29.94 1014 10 16 N/A
7:35 pm 19:35 Mostly Cloudy 37 2.6 30 -1.3 76 76 W 5 7 29.94 1014 10 16 N/A
7:55 pm 19:55 Mostly Cloudy 37 2.6 30 -1 77 77 WSW 5 7 29.94 1014 10 16 N/A
8:15 pm 20:15 Mostly Cloudy 37 2.6 31 -0.6 80 80 WSW 5 7 30.00 1016 10 16 N/A
8:35 pm 20:35 Cloudy 37 2.6 31 -0.8 79 79 SW 5 7 30.00 1016 10 16 N/A
8:55 pm 20:55 Cloudy 37 2.6 31 -0.7 79 79 SW 3 6 30.00 1016 10 16 N/A
9:15 pm 21:15 Cloudy with Light Snow 37 2.6 31 -0.5 80 80 WSW 3 6 30.00 1016 5 8 N/A
9:35 pm 21:35 Cloudy 37 2.6 32 -0.1 83 83 WSW 6 9 30.00 1016 10 16 N/A
9:55 pm 21:55 Cloudy 37 2.6 32 undefined 83 83 SW 6 9 30.00 1016 10 16 N/A
10:15 pm 22:15 Cloudy 37 2.6 32 undefined 83 83 WSW 7 11 30.00 1016 10 16 N/A
10:35 pm 22:35 Cloudy 37 2.6 32 undefined 83 83 WSW 7 11 30.00 1016 10 16 N/A
10:55 pm 22:55 Cloudy with Light Snow 37 2.6 32 0.2 84 84 WSW 8 13 30.03 1017 10 16 N/A
11:15 pm 23:15 Cloudy 37 2.6 33 0.3 85 85 W 12 19 30.03 1017 10 16 N/A
11:35 pm 23:35 Cloudy 37 2.6 33 0.3 85 85 W 9 15 30.03 1017 10 16 N/A
11:55 pm 23:55 Cloudy 37 2.6 32 0.1 84 84 W 10 17 30.06 1018 10 16 N/A

Powered by AerisWeather